Hourly Data Report for October 25, 2014

All times are specified in Local Standard Time (LST). Add 1 hour to adjust for Daylight Saving Time where and when it is observed.

BATHURST A
NEW BRUNSWICK

47°37'47.000" N
65°44'20.000" W
58.80 m
8100505
71574
ZBF

Download Data

Hourly Data (October 2014)
Hourly Data Report for October 25, 2014
Temp Definition
°C
Dew Point Temp Definition
°C
Rel Hum Definition
%
Wind Dir Definition
10's deg

Wind Spd Definition
km/h
Visibility Definition
km
Stn Press Definition
kPa
Hmdx Definition


Wind Chill Definition


Weather Definition


TIME
00:00 Legend Double Dagger 4.9 4.3 96 34 14 4.8 99.61     Rain,Fog
01:00 Legend Double Dagger 5.0 4.3 95 34 9 4.8 99.59     Rain,Fog
02:00 Legend Double Dagger 5.0 4.4 96 35 14 4.8 99.57     Rain,Fog
03:00 Legend Double Dagger 4.9 4.3 96 35 9 4.8 99.55     Rain,Fog
04:00 Legend Double Dagger 5.0 4.4 96 34 11 4.8 99.54     Rain,Fog
05:00 Legend Double Dagger 5.0 4.6 97 35 10 4.8 99.53     Rain,Fog
06:00 Legend Double Dagger 5.0 4.6 97 35 14 4.0 99.56     Rain,Fog
07:00 Legend Double Dagger 5.0 4.6 97 1 9 4.8 99.60     Rain,Fog
08:00 Legend Double Dagger 5.1 4.7 97 36 7 4.8 99.64     Rain,Rain Showers,Drizzle,Fog
09:00 Legend Double Dagger 5.4 4.8 96 1 11 3.2 99.64     Drizzle,Fog
10:00 Legend Double Dagger 5.5 4.9 96 3 14 3.2 99.65     Drizzle,Fog
11:00 Legend Double Dagger 5.3 4.4 94 3 16 3.2 99.63     Drizzle,Fog
12:00 Legend Double Dagger 5.1 4.5 96 2 9 6.4 99.58     Drizzle,Fog
13:00 Legend Double Dagger 5.3 4.4 94 2 9 6.4 99.53     Drizzle,Fog
14:00 Legend Double Dagger 5.1 4.4 95 3 11 2.0 99.52     Drizzle,Fog
15:00 Legend Double Dagger 5.2 4.5 95 4 11 2.0 99.50     Drizzle,Fog
16:00 Legend Double Dagger 4.9 4.2 95 6 9 2.4 99.51     Drizzle,Fog
17:00 Legend Double Dagger 4.8 4.2 96 1 7 4.8 99.50     Drizzle,Fog
18:00 Legend Double Dagger 4.6 4.2 97 2 5 6.4 99.51     Drizzle,Fog
19:00 Legend Double Dagger 4.4 4.0 97 4 5 4.8 99.48     Drizzle,Fog
20:00 Legend Double Dagger 4.4 4.1 98 2 4 6.4 99.44     Rain Showers,Fog
21:00 Legend Double Dagger 4.2 3.8 97 34 5 6.4 99.41     Rain Showers,Fog
22:00 Legend Double Dagger 4.0 3.4 96 32 5 6.4 99.37     Drizzle,Fog
23:00 Legend Double Dagger 3.7 3.1 96 34 6 8.1 99.30     Fog

Notes on Data Quality.

Legend

  • E = Estimated
  • M = Missing
  • NA = Not Available
  • ‡ = Partner data that is not subject to review by the National Climate Archives
Date modified: